Location: Byhalia Creek
(34.8270°N, 89.8040°W)
Time: 20:18:59
(UTC+00:00)

Cosmos 1980 - Pass Details

Date: 22 April 2026
Orbit: 838 x 845 km, 71.0° (Epoch: 21 May)

Event Time Altitude Azimuth Distance (km) Brightness Sun altitude
Rises 00:53:30 0° 197° (SSW) 3,375 6.8 -4.2°
Reaches altitude 10° 00:55:55 10° 197° (SSW) 2,444 6.1 -4.6°
Maximum altitude 01:01:32 83° 110° (ESE) 848 3.7 -5.7°
Drops below altitude 10° 01:07:11 10° 23° (NNE) 2,456 6.1 -6.8°
Sets 01:09:37 0° 23° (NNE) 3,394 6.8 -7.3°
